Location: Bailleul
(50.3375°N, 2.8513°E)
Time: 17:54:03
(UTC+00:00)

Cosmos 2016 Rocket - Pass Details

Date: 25 October 2021
Orbit: 946 x 1001 km, 83.0° (Epoch: 26 November)

Event Time Altitude Azimuth Distance (km) Brightness Sun altitude
Exits shadow 21:32:42 20° 309° (NW) 2,087 6.2 -44.9°
Drops below altitude 10° 21:36:19 10° 345° (NNW) 2,691 6.8 -45.3°
Sets 21:39:35 0° 3° (N) 3,635 7.4 -45.6°
